This is the latest recevied weather packets stored in our database for station/object K8RLH. If no packets are shown the sender has not sent any weather packets the latest 10 day(s).
| Time | Temp. | Humidity | Pressure | Rain* | Wind** | Luminosity | Snow |
|---|---|---|---|---|---|---|---|
| 1777819165 | 16.67° C | 50% | 1022.7 hPa | 0 mm | - | 273 W/m² | - |
| 1777818861 | 16.67° C | 52% | 1022.8 hPa | 0 mm | - | 468 W/m² | - |
| 1777818558 | 16.11° C | 54% | 1022.6 hPa | 0 mm | - | 247 W/m² | - |
| 1777818255 | 15.56° C | 61% | 1022.7 hPa | 0 mm | - | 513 W/m² | - |
| 1777817951 | 15° C | 61% | 1022.6 hPa | 0 mm | - | 509 W/m² | - |
| 1777817649 | 15° C | 62% | 1022.5 hPa | 0 mm | - | 492 W/m² | - |
| 1777817345 | 14.44° C | 65% | 1022.5 hPa | 0 mm | - | 486 W/m² | - |
| 1777817043 | 13.33° C | 66% | 1022.5 hPa | 0 mm | - | 474 W/m² | - |
| 1777816738 | 12.78° C | 68% | 1022.5 hPa | 0 mm | - | 461 W/m² | - |
| 1777816436 | 12.22° C | 70% | 1022.4 hPa | 0 mm | - | 336 W/m² | - |
| 1777816133 | 12.22° C | 69% | 1022.3 hPa | 0 mm | - | 123 W/m² | - |
| 1777815831 | 12.22° C | 74% | 1022.4 hPa | 0 mm | - | 41 W/m² | - |
| 1777815528 | 11.67° C | 77% | 1022.4 hPa | 0 mm | - | 44 W/m² | - |
| 1777815226 | 11.67° C | 77% | 1022.5 hPa | 0 mm | - | 47 W/m² | - |
| 1777814922 | 11.67° C | 79% | 1022.3 hPa | 0 mm | - | 46 W/m² | - |
| 1777814618 | 11.11° C | 76% | 1022.4 hPa | 0 mm | - | 59 W/m² | - |
| 1777814315 | 11.11° C | 73% | 1022.2 hPa | 0 mm | - | 46 W/m² | - |
| 1777814012 | 11.11° C | 77% | 1022.3 hPa | 0 mm | - | 37 W/m² | - |
| 1777813709 | 11.11° C | 79% | 1022.4 hPa | 0 mm | - | 39 W/m² | - |
| 1777813407 | 10.56° C | 85% | 1022.4 hPa | 0 mm | - | 38 W/m² | - |
| 1777813104 | 10° C | 86% | 1022.3 hPa | 0 mm | - | 90 W/m² | - |
| 1777812802 | 10° C | 91% | 1022.5 hPa | 0 mm | - | 36 W/m² | - |
| 1777812498 | 10° C | 95% | 1022.2 hPa | 0 mm | - | 35 W/m² | - |
| 1777812196 | 10° C | 96% | 1022.4 hPa | 0 mm | - | 44 W/m² | - |
| 1777811894 | 10.56° C | 98% | 1022.3 hPa | 0 mm | - | 34 W/m² | - |
* Rain latest hour (hover to see other rain measurements)
** Current wind speed in m/s (hover to see current wind gust speed)